Regional Weather Roundup
Issued by NWS Albany, NY

Current Version | Previous Version | Text Only | Print | Product List | Glossary On
Versions: 1 2 3 4 5 6 7 8 9 10 11 12 13 14 15 16 17 18 19 20 21 22 23 24 25 26 27 28 29 30 31 32 33 34 35 36 37 38 39 40 41 42 43 44 45 46 47 48 49 50
000
ASUS41 KALY 242210
RWRALY

NEW YORK STATE HOURLY WEATHER ROUNDUP
NATIONAL WEATHER SERVICE ALBANY NY
500 PM EST MON NOV 24 2014

NOTE: "FAIR" INDICATES FEW OR NO CLOUDS BELOW 12,000 FEET WITH NO
SIGNIFICANT WEATHER AND/OR NO OBSTRUCTIONS TO VISIBILITY.

NYZ032-033-038>043-046>054-057>066-NYZ062>081-242300-
EAST


CITY           SKY/WX    TMP DP  RH WIND       PRES   REMARKS
ALBANY         PTCLDY    66  56  70 S10       29.49R
GLENS FALLS    CLEAR     65  55  70 S12       29.44S
POUGHKEEPSIE   PTCLDY    67  57  70 S9        29.56R
NEWBURGH       PTCLDY    66  57  72 SW21G28   29.59R
MONTGOMERY     MOCLDY    67  54  63 S16G25    29.56R
WHITE PLAINS   PTCLDY    59  55  87 S7        29.62R
ISLIP          PTCLDY    59  56  89 SW20G28   29.65R FOG
NEW YORK CITY  PTCLDY    62  55  77 S9        29.63R
CENTRAL PARK   CLEAR     67  54  63 MISG      29.65R
$$

NYZ005>009-017-018-044>046-055-056-242300-
CENTRAL


CITY           SKY/WX    TMP DP  RH WIND       PRES   REMARKS
FULTON         MOCLDY    63  51  65 S10       29.36R
SYRACUSE       MOCLDY    68  50  52 S16G25    29.37R
ROME           MOCLDY    66  50  56 S16G23    29.41R
ELMIRA         LGT RAIN  67  50  54 SW15G28   29.44R
BINGHAMTON     PTCLDY    63  47  55 S17G26    29.48R
MONTICELLO     PTCLDY    61  52  72 S10G22    29.60R
$$

NYZ026>034-041>043-242300-
NORTH


CITY           SKY/WX    TMP DP  RH WIND       PRES   REMARKS
WATERTOWN      CLOUDY    68  47  46 S18G30    29.31R
FORT DRUM      NOT AVBL
MASSENA        PTCLDY    61  52  72 S14       29.26R
SARANAC LAKE   LGT RAIN  57  51  80 SW9       29.35S
PLATTSBURGH    PTCLDY    63  55  75 S14       29.33S
$$

NYZ001>004-010>016-019>021-242300-
WEST


CITY           SKY/WX    TMP DP  RH WIND       PRES   REMARKS
NIAGARA FALLS  MOCLDY    51  45  79 SW29G55   29.37R
BUFFALO        MOCLDY    52  45  77 SW30G52   29.39R
DUNKIRK        CLOUDY    51  44  77 W23G38    29.45R
JAMESTOWN      CLOUDY    54  45  71 SW24G40   29.47R
WELLSVILLE     CLOUDY    62  40  44 SW18G32   29.46R
ROCHESTER      LGT RAIN  57  50  77 SW17G26   29.36R
PENN YAN       CLEAR     63  47  55 S10       29.40R
$$

             KEY
       WCI = WIND CHILL INDEX
       VSB = VISIBILITY
       HX  = HEAT INDEX
$$


USA.gov is the U.S. government's official web portal to all federal, state and local government web resources and services.